Location: Unspecified
(0.0000°N, 0.0000°E)
Time: 14:12:19
(UTC+02:00)

Cosmos 1295 Rocket - Visible Passes

Search period start: 22 June 2017 00:00
Search period end: 02 July 2017 00:00
Orbit: 944 x 993 km, 82.9° (Epoch: 21 June)

Date Brightness Start Highest point End Pass type
(mag) Time Alt. Az. Time Alt. Az. Time Alt. Az.
22 Jun 7.4 07:26:20 10° ESE 07:28:39 12° E 07:30:57 10° ENE visible
22 Jun 4.5 20:26:32 10° N 20:32:50 71° E 20:39:06 10° S visible
23 Jun 5.3 20:50:02 10° NNW 20:56:11 57° W 21:02:21 10° S visible
24 Jun 6.6 21:14:23 10° NW 21:19:34 27° W 21:24:45 10° SSW visible
25 Jun 7.3 21:40:37 10° WNW 21:42:56 12° W 21:45:15 10° WSW visible
26 Jun 7.1 07:12:58 10° SE 07:17:11 19° E 07:21:23 10° NE visible
26 Jun 4.8 20:15:04 10° N 20:21:23 79° W 20:27:41 10° S visible
27 Jun 5.9 07:34:51 10° SSE 07:40:32 41° E 07:46:14 10° NNE visible
27 Jun 6.1 20:39:00 10° NNW 20:44:45 38° W 20:50:30 10° SSW visible
28 Jun 7.1 21:04:02 10° NW 21:08:07 18° W 21:12:12 10° SW visible
29 Jun 7.3 06:39:39 10° ESE 06:42:21 13° E 06:45:03 10° ENE visible
30 Jun 6.5 07:00:31 10° SSE 07:05:43 29° E 07:10:54 10° NE visible
01 Jul 5.1 07:23:03 10° S 07:29:04 62° E 07:35:08 10° NNE visible
01 Jul 6.9 20:28:16 10° NW 20:33:18 26° W 20:38:20 10° SSW visible
